When you browse on this site, cookies collect data to enhance your experience and personalize the content and advertising you see.
Visit our Privacy Policy to learn more. By continuing to use the site, you agree to this use of cookies and data.
  • In Latvia
  • List of Countries
  • For 7 days
  • Water Temperature
  • Satellite Maps
  • Weather Map
  • Weather Widgets
  • user-avatar
    Login

    Hourly Weather Kabul

    Today, 17 February, Sunday

    Time Temperature Precipitation Wind Pressure Humidity
    00:00 +2°C° 0.1 mm 1 mps 606 mmHg 46%
    01:00 +2°C° 0.1 mm 1 mps 606 mmHg 51%
    02:00 +1°C° 0.1 mm 1 mps 605 mmHg 56%
    03:00 0°C° 0 mm 1 mps 605 mmHg 59%
    04:00 0°C° 0 mm 1 mps 604 mmHg 62%
    05:00 -3°C° 0 mm 2 mps 604 mmHg 67%
    06:00 -1°C° 0 mm 1 mps 604 mmHg 67%
    07:00 -1°C° 0 mm 1 mps 603 mmHg 67%
    08:00 -1°C° 0 mm 1 mps 603 mmHg 67%
    09:00 0°C° 0.1 mm 1 mps 603 mmHg 67%
    10:00 +1°C° 0.1 mm 1 mps 603 mmHg 67%
    11:00 +1°C° 0 mm 2 mps 602 mmHg 68%
    12:00 +1°C° 0.1 mm 2 mps 602 mmHg 68%
    13:00 +2°C° 0.1 mm 2 mps 602 mmHg 68%
    14:00 +4°C° 0.1 mm 1 mps 601 mmHg 69%
    15:00 +4°C° 0 mm 1 mps 602 mmHg 68%
    16:00 +3°C° 0 mm 2 mps 602 mmHg 67%
    17:00 +3°C° 0 mm 2 mps 601 mmHg 65%
    18:00 +3°C° 0 mm 2 mps 601 mmHg 67%
    19:00 +2°C° 0 mm 2 mps 602 mmHg 70%
    20:00 +1°C° 0 mm 2 mps 602 mmHg 72%
    21:00 +1°C° 0.6 mm 1 mps 601 mmHg 78%
    22:00 +1°C° 0.6 mm 1 mps 601 mmHg 83%
    23:00 0°C° 0.6 mm 1 mps 601 mmHg 88%

    Tomorrow, 18 February, Monday

    Time Temperature Precipitation Wind Pressure Humidity
    00:00 0°C° 0.5 mm 1 mps 601 mmHg 88%
    01:00 0°C° 0.5 mm 1 mps 601 mmHg 88%
    02:00 0°C° 0.5 mm 1 mps 600 mmHg 87%
    03:00 0°C° 0.1 mm 1 mps 601 mmHg 85%
    04:00 0°C° 0.1 mm 1 mps 601 mmHg 83%
    05:00 0°C° 0.1 mm 1 mps 601 mmHg 81%
    06:00 0°C° 0 mm 1 mps 601 mmHg 79%
    07:00 0°C° 0 mm 1 mps 601 mmHg 76%
    08:00 0°C° 0 mm 1 mps 602 mmHg 73%
    09:00 +1°C° 0 mm 1 mps 602 mmHg 68%
    10:00 +1°C° 0 mm 1 mps 602 mmHg 63%
    11:00 +2°C° 0 mm 1 mps 602 mmHg 59%
    12:00 +2°C° 0 mm 2 mps 601 mmHg 56%
    13:00 +3°C° 0 mm 2 mps 601 mmHg 54%
    14:00 +3°C° 0 mm 2 mps 601 mmHg 51%
    15:00 +3°C° 0 mm 2 mps 601 mmHg 51%
    16:00 +3°C° 0 mm 2 mps 601 mmHg 51%
    17:00 +4°C° 0 mm 1 mps 601 mmHg 50%
    18:00 +2°C° 0 mm 1 mps 602 mmHg 53%
    19:00 +1°C° 0 mm 1 mps 602 mmHg 57%
    20:00 0°C° 0 mm 1 mps 603 mmHg 60%
    21:00 0°C° 0 mm 1 mps 603 mmHg 60%
    22:00 -1°C° 0 mm 1 mps 603 mmHg 61%
    23:00 -1°C° 0 mm 1 mps 603 mmHg 61%

    Day after tomorrow, 19 February, Tuesday

    Time Temperature Precipitation Wind Pressure Humidity
    00:00 -1°C° 0 mm 1 mps 603 mmHg 60%
    01:00 -2°C° 0 mm 1 mps 603 mmHg 60%
    02:00 -4°C° 0 mm 2 mps 603 mmHg 60%
    03:00 -2°C° 0 mm 1 mps 603 mmHg 59%
    04:00 -2°C° 0 mm 1 mps 603 mmHg 58%
    05:00 -3°C° 0 mm 1 mps 603 mmHg 58%
    06:00 -3°C° 0 mm 1 mps 603 mmHg 56%
    07:00 -3°C° 0 mm 1 mps 604 mmHg 54%
    08:00 -3°C° 0 mm 1 mps 604 mmHg 53%
    09:00 -2°C° 0 mm 1 mps 604 mmHg 51%
    10:00 -1°C° 0 mm 1 mps 604 mmHg 49%
    11:00 -1°C° 0 mm 2 mps 604 mmHg 47%
    12:00 -1°C° 0 mm 2 mps 604 mmHg 46%
    13:00 +1°C° 0 mm 2 mps 604 mmHg 46%
    14:00 +1°C° 0 mm 2 mps 604 mmHg 46%
    15:00 +1°C° 0 mm 2 mps 604 mmHg 46%
    16:00 0°C° 0 mm 3 mps 604 mmHg 47%
    17:00 0°C° 0 mm 3 mps 605 mmHg 48%
    18:00 -1°C° 0.1 mm 3 mps 605 mmHg 52%
    19:00 -2°C° 0.1 mm 2 mps 605 mmHg 56%
    20:00 -3°C° 0.1 mm 2 mps 606 mmHg 60%
    21:00 -4°C° 0.4 mm 2 mps 606 mmHg 69%
    22:00 -4°C° 0.4 mm 2 mps 606 mmHg 77%
    23:00 -5°C° 0.4 mm 2 mps 606 mmHg 85%

    20 February, Wednesday

    Time Temperature Precipitation Wind Pressure Humidity
    00:00 -5°C° 1.1 mm 2 mps 606 mmHg 87%
    01:00 -5°C° 1.1 mm 2 mps 605 mmHg 90%
    02:00 -6°C° 1.1 mm 2 mps 605 mmHg 92%
    03:00 -5°C° 0.5 mm 2 mps 605 mmHg 91%
    04:00 -5°C° 0.5 mm 2 mps 605 mmHg 89%
    05:00 -5°C° 0.5 mm 2 mps 605 mmHg 88%
    06:00 -5°C° 0.7 mm 2 mps 605 mmHg 89%
    07:00 -5°C° 0.7 mm 2 mps 605 mmHg 90%
    08:00 -5°C° 0.7 mm 2 mps 606 mmHg 91%
    09:00 -4°C° 0.5 mm 2 mps 606 mmHg 89%
    10:00 -4°C° 0.5 mm 2 mps 606 mmHg 87%
    11:00 -4°C° 0.5 mm 3 mps 606 mmHg 85%
    12:00 -4°C° 0.8 mm 3 mps 605 mmHg 87%
    13:00 -4°C° 0.8 mm 3 mps 605 mmHg 88%
    14:00 -4°C° 0.8 mm 3 mps 604 mmHg 89%
    15:00 -4°C° 1.1 mm 3 mps 604 mmHg 90%
    16:00 -4°C° 1.1 mm 3 mps 603 mmHg 92%
    17:00 -4°C° 1.1 mm 3 mps 603 mmHg 93%
    18:00 -4°C° 1.4 mm 3 mps 603 mmHg 93%
    19:00 -3°C° 1.4 mm 2 mps 603 mmHg 94%
    20:00 -3°C° 1.4 mm 2 mps 603 mmHg 95%
    21:00 -3°C° 1.1 mm 2 mps 603 mmHg 94%
    22:00 -3°C° 1.1 mm 2 mps 603 mmHg 94%
    23:00 -3°C° 1.1 mm 2 mps 603 mmHg 93%

    21 February, Thursday

    Time Temperature Precipitation Wind Pressure Humidity
    00:00 -3°C° 1.2 mm 2 mps 602 mmHg 94%
    01:00 -3°C° 1.2 mm 2 mps 602 mmHg 94%
    02:00 -1°C° 1.2 mm 1 mps 602 mmHg 95%
    03:00 -2°C° 0.3 mm 1 mps 601 mmHg 94%
    04:00 -2°C° 0.3 mm 1 mps 601 mmHg 92%
    05:00 -3°C° 0.3 mm 1 mps 601 mmHg 91%
    06:00 -2°C° 0.2 mm 1 mps 601 mmHg 90%
    07:00 -2°C° 0.2 mm 1 mps 602 mmHg 89%
    08:00 -2°C° 0.2 mm 1 mps 602 mmHg 88%
    09:00 -1°C° 0.2 mm 1 mps 603 mmHg 89%
    10:00 -1°C° 0.2 mm 1 mps 603 mmHg 90%
    11:00 -2°C° 0.2 mm 2 mps 604 mmHg 90%
    12:00 -1°C° 0.2 mm 2 mps 604 mmHg 91%
    13:00 -1°C° 0.2 mm 2 mps 604 mmHg 92%
    14:00 -1°C° 0.2 mm 2 mps 603 mmHg 94%
    15:00 -1°C° 0.1 mm 2 mps 604 mmHg 90%
    16:00 -1°C° 0.1 mm 2 mps 604 mmHg 87%
    17:00 -1°C° 0.1 mm 2 mps 604 mmHg 84%
    18:00 -2°C° 0 mm 2 mps 604 mmHg 81%
    19:00 -4°C° 0 mm 2 mps 605 mmHg 79%
    20:00 -5°C° 0 mm 2 mps 605 mmHg 77%
    21:00 -6°C° 0 mm 2 mps 605 mmHg 76%
    22:00 -6°C° 0 mm 2 mps 605 mmHg 75%
    23:00 -6°C° 0 mm 1 mps 605 mmHg 73%

    22 February, Friday

    Time Temperature Precipitation Wind Pressure Humidity
    00:00 -6°C° 0 mm 1 mps 605 mmHg 73%
    01:00 -6°C° 0 mm 1 mps 605 mmHg 72%
    02:00 -7°C° 0 mm 1 mps 605 mmHg 72%
    03:00 -7°C° 0 mm 1 mps 605 mmHg 71%
    04:00 -7°C° 0 mm 1 mps 605 mmHg 71%
    05:00 -7°C° 0 mm 1 mps 605 mmHg 70%
    06:00 -7°C° 0 mm 1 mps 606 mmHg 70%
    07:00 -7°C° 0 mm 1 mps 606 mmHg 69%
    08:00 -8°C° 0 mm 2 mps 607 mmHg 68%
    09:00 -6°C° 0 mm 1 mps 607 mmHg 64%
    10:00 -3°C° 0 mm 1 mps 607 mmHg 60%
    11:00 -2°C° 0 mm 1 mps 607 mmHg 55%
    12:00 -1°C° 0 mm 1 mps 607 mmHg 59%
    13:00 -3°C° 0 mm 2 mps 606 mmHg 63%
    14:00 -2°C° 0 mm 2 mps 606 mmHg 66%
    15:00 -3°C° 0 mm 2 mps 606 mmHg 68%
    16:00 -3°C° 0 mm 2 mps 606 mmHg 70%
    17:00 -1°C° 0 mm 1 mps 606 mmHg 72%
    18:00 -3°C° 0 mm 1 mps 606 mmHg 71%
    19:00 -6°C° 0 mm 2 mps 606 mmHg 70%
    20:00 -7°C° 0 mm 2 mps 607 mmHg 69%
    21:00 -8°C° 0 mm 2 mps 607 mmHg 67%
    22:00 -8°C° 0 mm 2 mps 607 mmHg 65%
    23:00 -8°C° 0 mm 2 mps 607 mmHg 63%
    Show more